Retour au catalogue

ARIANE 44L DEB

ActifHEO
NORAD 24741·DEBRIS·🇫🇷 France

Lancé Jan 15, 1991 depuis Guiana Space Centre

Loading…

Prochains Passages (prochaines 24 heures)

TLE

FraisSource: Space-Track

Époque: Sep 14, 2026, 14:14 UTC

1 24741U 91003H   26257.59347441 -.00000269  00000-0 -38939-2 0  9993
2 24741   6.4082 136.6978 6804825 296.9693 297.4991  2.65549829202114

Suivez ARIANE 44L DEB en temps réel avec AllMySat

Download on the App Store